Location: Bottenau
(48.5138°N, 8.0462°E)
Time: 05:41:01
(UTC+00:00)

USA 215 - Pass Details

Date: 18 April 2021
Orbit: 1101 x 1107 km, 123.0° (Epoch: 07 May)

Event Time Altitude Azimuth Distance (km) Brightness Sun altitude
Exits shadow 20:45:38 34° 149° (SSE) 1,725 3.7 -20.5°
Maximum altitude 20:48:36 66° 220° (SW) 1,193 3.3 -20.9°
Drops below altitude 10° 20:55:07 10° 302° (WNW) 2,964 6.6 -21.6°
Sets 20:57:38 0° 305° (NW) 3,925 7.5 -21.8°
